THOR ABLESTAR DEB, 150

Orbit data source: Space-Track

THOR ABLESTAR DEB, 150 is space debris in LEO originally from a launch on Thu, 29 Jun 1961 UTC launched from the Air Force Eastern Test Range (AFETR). Debris objects in space refer to the collection of defunct objects orbiting the Earth. Examples of debris include non-operational satellites, rocket bodies, and fragments generated from explosions, collisions, or faulty payload assembly.

Loading next visibility...
Identifier
150, 1961-015AL
Orbit
LEO
Country
Flag of USUS
Related business
Manufacturer
Unknown
Mission
Spacecraft
Bus & Motor
Unknown
Mass
Unknown
Launch date (UTC)
1961-06-29 (64 years ago)
Launch vehicle
Unknown
Launch site
Air Force Eastern Test Range (AFETR)
Object type
Payload
Rocket body
Debris
Shape & HBR
Unknown
Radar Cross Section
Medium (>0.1 m² and <1 m²)

Expand to show TLE details & history
Last TLE update: 22 hours ago

TLE from 22 hours ago
0 THOR ABLESTAR DEB
1 00150U 61015AL  25261.01528544  .00000460  00000-0  48361-3 0  9999
2 00150  66.2465 214.4258 0051928  49.0576 311.4972 13.83542377 70848
Epoch: 2025-09-18T00:22Z
TLE epoch observation values (Epoch: 2025-09-18T00:22:00.661Z)
Latitude
-0.00004°
Longitude
-148.25992°
Altitude
928.266 km
Speed
7.401 km/s
True Right ascension
14h 17m 42s
True Declination
0° 00' 00"
Sunlit
Object was in daylight at epoch
Visualization orbit readout
Latitude
Unknown
Longitude
Unknown
Altitude
Unknown
Speed
Unknown
Apparent Right ascension
Unknown
Apparent Declination
Unknown
Sunlit
N/A
Visualization observer readout
Local Sidereal Time
15:24:55
Azimuth
Unknown
Elevation
Unknown
Doppler factor
Unknown
Orbital elements
Apogee altitude
987.864 km
Perigee altitude
911.759 km
Semi-major axis
7,327.949 km
Eccentricity
0.00519
Inclination
66.2465°
RAAN
214.4258°
Arg. of periapsis
49.0576°
True anomaly
311.04959°
Mean anomaly
311.4972°
Eccentric anomaly
311.27359°
Mean motion
3.45995 °/min
Orbital period
104.05 mins
BSTAR
0.00048361
Loading maneuver chart data...
Computing Atmospheric mass density...

Documentation

Showing up to 5 results
|